Lid_Strength_Index
-0 0 1 3 11 10 13 11 8 9 9 6 5 7 8 7 8 12 2 1 0 0 -0 -1 -2 -2 -1 -2 -2 -2 -2 -2 -2 -2 -2 -2 -2 -1 -2 -2 -2 -2 -1 -1 -1 -1 -1 -1 -1
-0 1 2 6 12 15 13 9 10 8 7 5 5 6 7 9 5 4 3 1 0 -0 -0 -0 -1 -2 -2 -2 -2 -2 -2 -2 -1 -2 -1 -2 -2 -2 -1 -1 -1 -1 -1 -1 -1 -1 -1 -1 -1
0 1 7 10 12 14 13 9 8 7 5 6 7 5 6 8 4 3 1 0 -0 0 -0 -0 -2 -2 -2 -1 -1 -2 -1 -2 -2 -1 -1 -2 -2 -2 -2 -1 -1 -1 -1 -1 -1 -1 -1 -1 -1
2 4 6 11 11 9 9 8 7 7 6 5 6 8 5 3 3 2 0 0 0 0 -0 -1 -2 -1 -1 -1 -1 -2 -1 -1 -1 -1 -2 -1 -1 -1 -1 -1 -1 -1 -1 -1 -1 -1 -1 -1 -1
3 6 12 11 10 8 7 6 6 8 7 7 6 8 7 3 1 1 1 0 1 0 -0 -0 -1 -2 -1 -1 -1 -2 -2 -1 -1 -1 -1 -1 -1 -1 -1 -1 -1 -1 -1 -1 -1 -1 -1 -1 -1
7 7 12 13 10 8 7 6 6 7 6 6 7 7 7 2 2 1 1 1 0 0 -0 -0 -1 -2 -2 -1 -1 -1 -1 -1 -1 -1 -1 -1 -1 -1 -1 -1 -1 -1 -1 -1 -1 -1 -1 -1 -1
8 10 11 11 10 9 8 5 7 7 7 7 5 8 6 4 2 1 1 0 0 -0 -0 -0 -0 -1 -1 -1 -1 -1 -1 -1 -1 -1 -1 -1 -1 -1 -1 -1 -1 -1 -1 -1 -1 -1 -1 -1 -1
6 8 10 10 10 10 6 6 5 6 7 4 4 8 8 4 1 1 1 1 1 0 0 -0 0 0 0 -0 -1 -1 -1 -1 -1 -1 -1 -1 -1 -1 -1 -2 -2 -1 -1 -1 -1 -1 -1 -1 -1
4 10 12 10 10 8 6 7 5 4 6 5 4 5 4 2 1 2 2 2 1 1 0 0 0 0 0 0 -0 -1 -1 -1 -1 -1 -1 -1 -0 -0 -1 -1 -1 -1 -1 -1 -1 -1 -1 -1 -1
7 11 10 8 8 8 6 6 6 6 6 6 5 3 3 2 3 3 3 3 3 2 1 0 0 0 0 -0 -0 0 -0 -0 -0 -0 -0 -0 -0 -0 -1 -1 -1 -2 -2 -1 -1 -1 -1 -1 -0
6 10 7 7 6 6 6 6 5 7 8 6 6 5 4 3 3 3 3 3 3 2 1 0 0 0 0 0 -0 0 0 -0 0 -0 0 -0 -1 -0 -0 -0 -0 -0 -1 -0 -1 -1 -1 -1 0
9 7 6 6 6 6 7 6 6 6 6 4 4 3 4 4 4 3 3 3 2 2 1 1 1 1 1 1 0 -0 -0 -0 0 0 -0 0 0 -0 0 0 0 0 -0 -0 -0 -0 -0 -0 -1
7 7 6 6 6 6 5 7 6 6 4 3 3 3 4 4 3 3 2 2 2 2 1 1 1 1 1 1 0 0 0 0 0 0 0 -0 0 1 0 0 -0 0 0 -0 1 0 0 0 -0
6 7 6 6 6 6 7 7 6 6 4 4 4 4 4 4 3 3 3 2 2 2 1 1 1 1 2 2 1 1 1 0 0 0 0 0 1 1 0 0 -0 -0 0 0 -0 1 0 0 0
6 9 7 7 6 7 6 7 7 5 4 5 5 4 4 4 3 3 2 3 3 1 1 1 1 1 2 1 1 1 1 1 1 1 0 0 -0 0 0 0 0 1 0 0 -0 0 0 0 -0
8 8 12 8 7 6 7 11 7 5 5 6 5 5 4 4 3 3 2 3 3 1 1 1 0 1 1 1 1 0 1 1 1 0 -0 -0 0 0 0 0 0 0 -0 0 1 0 1 1 1
9 13 11 10 7 7 8 10 7 5 5 6 5 5 4 4 4 3 2 2 2 1 1 1 1 1 1 0 1 1 1 1 0 -0 -0 0 0 -0 0 0 0 0 -0 0 0 1 2 1 1
12 12 11 11 8 8 9 10 7 6 6 6 6 5 5 4 4 3 2 2 2 2 1 1 1 1 1 1 1 1 1 1 0 -0 0 -0 1 -0 0 0 0 0 0 2 2 2 2 1 1
9 11 11 9 7 9 9 9 8 6 6 6 6 6 5 5 4 3 2 2 2 2 2 2 2 2 1 1 2 2 2 2 1 0 -0 1 1 -0 0 0 1 1 2 2 1 2 2 2 1
9 11 11 9 7 8 9 10 8 7 7 6 6 6 5 5 4 4 3 2 2 2 2 2 2 2 1 1 1 1 1 2 1 0 0 0 0 0 0 1 1 1 2 3 2 1 3 3 2
10 11 11 10 8 8 9 11 10 7 7 6 5 5 5 5 4 4 4 3 2 2 2 2 1 1 1 1 1 1 1 2 1 1 1 0 0 0 1 1 1 1 2 2 2 1 3 3 2
13 8 8 9 11 13 9 15 12 9 9 7 6 5 5 5 4 4 4 3 3 2 2 1 1 1 1 1 1 2 2 3 2 3 2 2 1 0 0 0 2 1 1 1 1 1 1 3 3
10 7 8 9 11 12 11 14 12 10 11 9 7 6 5 5 4 4 4 4 3 2 2 1 1 1 1 1 1 1 2 2 4 5 5 2 1 1 0 1 2 1 1 1 1 2 2 2 2
9 9 10 11 12 15 12 13 13 12 10 8 6 6 5 4 4 4 3 3 3 2 2 2 2 2 1 1 1 1 2 3 4 4 3 2 2 1 1 1 2 1 1 1 1 1 1 2 2
10 14 16 16 17 16 13 13 11 9 7 7 7 6 5 4 4 4 4 3 3 3 2 2 2 2 2 2 1 1 1 3 3 2 2 2 2 1 1 2 2 2 0 1 1 2 1 2 2
11 12 15 17 17 15 13 14 11 8 6 7 5 5 5 5 4 4 3 3 3 3 2 2 2 2 2 1 1 1 1 2 2 3 4 4 1 1 1 1 2 1 0 1 1 2 2 2 3
11 13 11 14 15 16 14 11 9 8 8 7 6 6 5 5 4 4 3 3 3 3 2 2 2 2 2 1 1 1 1 1 2 3 5 4 1 1 1 0 2 1 1 1 3 3 4 2 3
10 10 14 16 17 18 15 14 13 11 9 8 7 7 6 6 4 4 4 3 3 2 2 2 2 2 2 1 1 1 1 1 1 2 2 1 1 1 0 0 1 1 1 1 2 4 4 3 3
12 13 13 14 15 16 17 14 10 9 8 8 7 6 6 5 6 5 4 3 2 2 2 2 2 2 2 2 1 1 1 1 1 1 2 2 2 1 1 1 2 2 1 2 3 4 5 3 4
12 12 14 15 16 15 14 15 9 8 8 7 7 6 7 7 6 6 6 4 3 3 3 2 2 2 2 1 1 1 1 1 1 1 1 2 2 1 1 1 2 2 1 2 3 4 5 4 5